星链-11180 (STARLINK-11180)

导读 | 星芒AI

STARLINK-11180 是 SpaceX Starlink 卫星互联网项目中的一颗低轨卫星,属于第54批部署的“星链”卫星之一。该卫星于2022年发射,运行在约550公里高度的近地轨道,旨在为全球用户提供高速互联网服务。它采用先进的相控阵天线和激光通信技术,提高网络连接效率与稳定性。Starlink 项目计划部署数万颗卫星,以构建覆盖全球的宽带网络系统,尤其服务于偏远地区。STARLINK-11180 在提升全球互联网接入能力方面发挥着重要作用。

基本信息
目录编号:
60185
目录名称:
STARLINK-11180
国际标识:
2024-124C
轨道中心:
EARTH
卫星名称:
星链-11180 (STARLINK-11180)
卫星全名:
星链-11180 (STARLINK-11180)
卫星状态:
在轨 (已飞行483 天)
发射日期:
2024-07-03 UTC
国别 :
美国 (US)
星等 :
--
轨道信息
数据来源 国际轨道数据
星历时间: 2025-10-28T04:32:19+0800
1天前
查看轨道信息
半长轴: 6737.77km
偏心率: 0.0000517
轨道倾角: 53.159°
近地点辐角 76.479°
升交点赤经 95.890°
平近点角 283.629°
近地点: 359.286km
远地点: 359.984km
周期: 91.735分钟
每日圈数: 15.697428
详细信息
卫星平台:
Starlink v2.0 mini
运营商:
太空探索技术公司
运营商所在国:
美国
制造商(研发单位):
太空探索技术公司
制造商所在国:
美国
使用方式:
暂无
卫星简介
星链(Starlink)计划是由太空探索技术公司(SpaceX)提出的一个巨型低轨卫星互联网星座项目,计划在2019年至2024年间在太空搭建由约1.2万颗卫星组成的“星链”网络,其中1584颗将部署在地球上空550千米处的近地轨道,并从2020年开始工作。该卫星仍在工作。
2D轨道图
3D轨道图
轨道高度分析图
轨道倾角分析图
轨道综合分析图
查看轨道综合分析图